SCP
0 0 0 0 0 0 0 0 0 0 0 0 0 0 0 0 0 0 0 0 0 0
0 0 0 0 0 0 0 0 0 0 0 0 0 0 0 0 0 0 0 0 0 0
0 0 0 0 0 0 0 0 0 0 0 0 0 0 0 0 0 0 0 0 0 0
0 0 0 0 0 0 0 0 0 0 0 0 0 0 0 0 0 0 0 0 0 0
0 0 0 0 0 0 0 0 0 0 0 0 0 0 0 0 0 0 0 0 0 0
0 0 0 0 0 0 0 0 0 0 0 0 0 0 0 0 0 0 0 0 0 0
0 0 0 0 0 0 0 0 0 0 0 0 0 0 0 0 0 0 0 0 0 0
0 0 0 0 0 0 0 0 0 0 0 0 0 0 0 0 0 0 0 0 0 0
0 0 0 0 0 0 0 0 0 0 0 0 0 0 0 0 0 0 0 0 0 0
0 0 0 0 0 0 0 0 0 0 0 0 0 0 0 0 0 0 0 0 0 0
0 0 0 0 0 0 0 0 0 0 0 0 0 0 0 0 0 0 0 0 0 0
0 0 0 0 0 0 0 0 0 0 0 0 0 0 0 0 0 0 0 0 0 0
0 0 0 0 0 0 0 0 0 0 0 0 0 0 0 0 0 0 0 0 0 0
0 0 0 0 0 0 0 0 0 0 0 0 0 0 0 0 0 0 0 0 0 0
Wind_Speed_500mb
64 67 62 60 56 49 46 44 50 55 58 57 55 55 58 57 57 60 62 62 63 62
58 61 58 52 52 49 44 40 42 48 52 54 53 53 56 58 60 59 57 58 57 56
50 51 52 52 51 48 46 41 40 43 47 50 52 53 56 58 57 57 57 55 53 52
45 47 48 47 47 47 46 42 41 41 46 50 51 53 56 56 56 55 55 54 52 49
39 41 43 44 43 45 43 43 40 41 44 47 49 51 54 55 54 54 53 53 50 46
35 38 39 41 43 43 43 43 41 41 43 44 47 50 52 51 51 51 50 48 45 41
33 33 36 37 39 39 41 41 40 39 41 43 44 46 47 48 47 46 45 43 42 38
27 31 32 33 33 36 37 37 38 38 40 41 41 42 45 45 44 44 43 41 38 37
27 28 28 30 31 32 34 35 36 38 39 39 40 39 39 39 42 43 44 44 43 41
24 25 27 27 28 29 30 32 35 37 38 36 36 37 38 39 40 40 40 40 43 42
23 24 24 24 24 26 27 29 32 35 34 34 36 38 41 40 39 40 41 40 38 34
19 21 21 22 23 23 26 31 33 33 35 38 41 40 37 39 41 42 41 37 33 30
18 18 19 20 21 24 27 31 35 38 40 41 43 38 36 38 43 47 46 42 37 33
18 18 18 20 23 26 32 37 41 47 48 45 37 38 37 36 39 41 45 42 37 30
Wind_Direction_500mb
220 226 227 226 225 230 230 231 225 222 222 228 226 224 224 226 227 228 229 232 232 235
218 223 225 225 226 229 224 225 225 225 228 230 227 226 227 228 226 226 228 230 232 235
217 220 222 222 224 223 220 222 225 225 226 228 228 225 227 227 226 226 227 229 231 235
215 217 219 221 222 216 219 221 225 225 225 226 225 223 223 225 226 227 229 229 230 234
214 216 217 217 216 217 219 222 222 222 224 225 224 224 223 223 224 224 227 230 229 231
217 216 215 214 214 214 216 219 220 220 221 223 222 222 221 221 223 224 224 228 230 232
213 211 211 211 212 212 215 215 217 217 219 220 219 218 219 218 217 218 218 221 225 228
203 201 202 204 205 207 209 210 211 212 213 214 213 214 214 213 213 213 214 216 218 220
195 194 195 197 200 202 204 206 207 207 207 208 206 205 207 210 210 210 212 213 213 209
185 188 190 192 194 197 201 203 203 201 199 198 197 195 197 199 206 209 207 205 202 198
182 183 183 185 189 192 195 197 196 192 189 185 185 189 193 194 194 195 194 196 197 199
175 176 178 181 182 185 188 186 180 180 178 177 179 189 190 189 186 185 183 183 184 191
166 169 172 173 174 175 174 173 169 166 169 177 183 180 184 189 187 180 177 176 182 191
160 165 167 167 164 168 165 163 159 160 166 176 184 173 175 185 190 191 180 179 180 197
Wind_Speed_850mb
64 67 62 60 56 49 46 44 50 55 58 57 55 55 58 57 57 60 62 62 63 62
58 61 58 52 52 49 44 40 42 48 52 54 53 53 56 58 60 59 57 58 57 56
50 51 52 52 51 48 46 41 40 43 47 50 52 53 56 58 57 57 57 55 53 52
45 47 48 47 47 47 46 42 41 41 46 50 51 53 56 56 56 55 55 54 52 49
39 41 43 44 43 45 43 43 40 41 44 47 49 51 54 55 54 54 53 53 50 46
35 38 39 41 43 43 43 43 41 41 43 44 47 50 52 51 51 51 50 48 45 41
33 33 36 37 39 39 41 41 40 39 41 43 44 46 47 48 47 46 45 43 42 38
27 31 32 33 33 36 37 37 38 38 40 41 41 42 45 45 44 44 43 41 38 37
27 28 28 30 31 32 34 35 36 38 39 39 40 39 39 39 42 43 44 44 43 41
24 25 27 27 28 29 30 32 35 37 38 36 36 37 38 39 40 40 40 40 43 42
23 24 24 24 24 26 27 29 32 35 34 34 36 38 41 40 39 40 41 40 38 34
19 21 21 22 23 23 26 31 33 33 35 38 41 40 37 39 41 42 41 37 33 30
18 18 19 20 21 24 27 31 35 38 40 41 43 38 36 38 43 47 46 42 37 33
18 18 18 20 23 26 32 37 41 47 48 45 37 38 37 36 39 41 45 42 37 30
Wind_Direction_850mb
220 226 227 226 225 230 230 231 225 222 222 228 226 224 224 226 227 228 229 232 232 235
218 223 225 225 226 229 224 225 225 225 228 230 227 226 227 228 226 226 228 230 232 235
217 220 222 222 224 223 220 222 225 225 226 228 228 225 227 227 226 226 227 229 231 235
215 217 219 221 222 216 219 221 225 225 225 226 225 223 223 225 226 227 229 229 230 234
214 216 217 217 216 217 219 222 222 222 224 225 224 224 223 223 224 224 227 230 229 231
217 216 215 214 214 214 216 219 220 220 221 223 222 222 221 221 223 224 224 228 230 232
213 211 211 211 212 212 215 215 217 217 219 220 219 218 219 218 217 218 218 221 225 228
203 201 202 204 205 207 209 210 211 212 213 214 213 214 214 213 213 213 214 216 218 220
195 194 195 197 200 202 204 206 207 207 207 208 206 205 207 210 210 210 212 213 213 209
185 188 190 192 194 197 201 203 203 201 199 198 197 195 197 199 206 209 207 205 202 198
182 183 183 185 189 192 195 197 196 192 189 185 185 189 193 194 194 195 194 196 197 199
175 176 178 181 182 185 188 186 180 180 178 177 179 189 190 189 186 185 183 183 184 191
166 169 172 173 174 175 174 173 169 166 169 177 183 180 184 189 187 180 177 176 182 191
160 165 167 167 164 168 165 163 159 160 166 176 184 173 175 185 190 191 180 179 180 197